ENT105T EPWA-LGSM

Flight info

Callsign ENT105T
Flight time 2h 13m
Altitude 35000
Route XIMBA DCT OMAVA DCT ROBTU DCT KENIN DCT BADOR DCT LOMOS DCT NIKTI UN127 LMO UL618 MES UL609 URNIL
Aircraft B738/M-SDE2E3FGHIRWXY/LB1

Departure

Time 2026-05-08 08:34
Airport Warsaw Chopin Airport (EPWA)

Arrival

Time 2026-05-08 10:47
Airport Samos Airport (LGSM)
Time Latitude Longitude Altitude Speed Heading
2026-05-08 08:16 52.17900 20.96205 368 ft 0 kts 332°
2026-05-08 08:24 52.17895 20.96208 368 ft 1 kts 311°
2026-05-08 08:24 52.17887 20.96226 368 ft 1 kts 321°
2026-05-08 08:25 52.17874 20.96237 368 ft 2 kts 337°
2026-05-08 08:25 52.17866 20.96243 368 ft 2 kts 322°
2026-05-08 08:25 52.17857 20.96263 368 ft 2 kts 290°
2026-05-08 08:25 52.17855 20.96286 368 ft 2 kts 261°
2026-05-08 08:26 52.17857 20.96300 368 ft 0 kts 244°
2026-05-08 08:26 52.17861 20.96310 368 ft 0 kts 242°
2026-05-08 08:27 52.17860 20.96308 368 ft 1 kts 242°
2026-05-08 08:27 52.17852 20.96283 368 ft 3 kts 242°
2026-05-08 08:27 52.17835 20.96232 368 ft 6 kts 242°
2026-05-08 08:28 52.17808 20.96149 368 ft 9 kts 242°
2026-05-08 08:28 52.17758 20.96085 368 ft 11 kts 174°
2026-05-08 08:28 52.17679 20.96146 368 ft 14 kts 151°
2026-05-08 08:28 52.17583 20.96231 368 ft 17 kts 152°
2026-05-08 08:29 52.17468 20.96330 368 ft 20 kts 152°
2026-05-08 08:29 52.17338 20.96443 368 ft 23 kts 152°
2026-05-08 08:29 52.17189 20.96573 368 ft 25 kts 152°
2026-05-08 08:29 52.17023 20.96719 368 ft 28 kts 152°
2026-05-08 08:30 52.16848 20.96871 368 ft 29 kts 152°
2026-05-08 08:30 52.16689 20.97009 368 ft 24 kts 152°
2026-05-08 08:30 52.16593 20.97299 368 ft 16 kts 113°
2026-05-08 08:31 52.16543 20.97478 368 ft 18 kts 114°
2026-05-08 08:31 52.16486 20.97684 368 ft 20 kts 114°
2026-05-08 08:31 52.16420 20.97808 368 ft 11 kts 183°
2026-05-08 08:31 52.16336 20.97745 368 ft 13 kts 208°
2026-05-08 08:32 52.16307 20.97695 368 ft 6 kts 256°
2026-05-08 08:32 52.16316 20.97632 368 ft 2 kts 294°
2026-05-08 08:32 52.16319 20.97620 368 ft 5 kts 294°
2026-05-08 08:33 52.16419 20.97269 368 ft 68 kts 295°
2026-05-08 08:33 52.16706 20.96247 368 ft 128 kts 295°
2026-05-08 08:33 52.17148 20.94674 404 ft 171 kts 296°
2026-05-08 08:33 52.17642 20.92878 918 ft 177 kts 295°
2026-05-08 08:34 52.18116 20.91028 1434 ft 180 kts 289°
2026-05-08 08:34 52.18288 20.88969 1808 ft 188 kts 268°
2026-05-08 08:34 52.18044 20.86810 2082 ft 204 kts 257°
2026-05-08 08:34 52.17614 20.84476 2288 ft 226 kts 254°
2026-05-08 08:35 52.17189 20.81925 2665 ft 242 kts 257°
2026-05-08 08:35 52.16496 20.79373 3117 ft 256 kts 231°
2026-05-08 08:35 52.15013 20.77763 3698 ft 265 kts 195°
2026-05-08 08:35 52.13203 20.77824 4388 ft 268 kts 161°
2026-05-08 08:36 52.11668 20.79522 4933 ft 275 kts 130°
2026-05-08 08:36 52.10518 20.81996 5656 ft 275 kts 131°
2026-05-08 08:36 52.09043 20.83993 6211 ft 279 kts 149°
2026-05-08 08:36 52.07452 20.85752 6881 ft 281 kts 144°
2026-05-08 08:37 52.05934 20.87711 7529 ft 284 kts 142°
2026-05-08 08:37 52.04417 20.89756 8206 ft 285 kts 142°
2026-05-08 08:37 52.02902 20.91815 8868 ft 287 kts 142°
2026-05-08 08:37 52.01376 20.93905 9541 ft 289 kts 142°
2026-05-08 08:38 51.99854 20.95997 10209 ft 291 kts 142°
2026-05-08 08:38 51.98265 20.98180 10471 ft 309 kts 142°
2026-05-08 08:38 51.96578 21.00499 10598 ft 330 kts 141°
2026-05-08 08:38 51.94780 21.02971 10965 ft 342 kts 141°
2026-05-08 08:39 51.92956 21.05480 11544 ft 347 kts 141°
2026-05-08 08:39 51.91141 21.07974 12167 ft 350 kts 141°
2026-05-08 08:39 51.89270 21.10540 12777 ft 354 kts 141°
2026-05-08 08:39 51.87380 21.13128 13404 ft 357 kts 141°
2026-05-08 08:40 51.85452 21.15767 14022 ft 361 kts 141°
2026-05-08 08:40 51.83517 21.18412 14623 ft 365 kts 141°
2026-05-08 08:40 51.81586 21.21048 15207 ft 369 kts 141°
2026-05-08 08:40 51.79623 21.23724 15784 ft 373 kts 141°
2026-05-08 08:41 51.77645 21.26418 16340 ft 377 kts 141°
2026-05-08 08:41 51.75609 21.29187 16894 ft 381 kts 141°
2026-05-08 08:41 51.73598 21.31920 17425 ft 384 kts 141°
2026-05-08 08:41 51.71550 21.34700 17942 ft 388 kts 141°
2026-05-08 08:42 51.69482 21.37502 18452 ft 391 kts 141°
2026-05-08 08:42 51.67387 21.40328 18947 ft 395 kts 142°
2026-05-08 08:42 51.65217 21.42971 19416 ft 397 kts 148°
2026-05-08 08:42 51.62847 21.45326 19905 ft 399 kts 151°
2026-05-08 08:43 51.60472 21.47593 20357 ft 403 kts 150°
2026-05-08 08:43 51.58077 21.49921 20797 ft 406 kts 150°
2026-05-08 08:43 51.55639 21.52289 21239 ft 409 kts 150°
2026-05-08 08:43 51.53193 21.54647 21660 ft 412 kts 150°
2026-05-08 08:44 51.50756 21.56987 22066 ft 415 kts 150°
2026-05-08 08:44 51.48251 21.59389 22475 ft 418 kts 150°
2026-05-08 08:44 51.45760 21.61772 22861 ft 421 kts 150°
2026-05-08 08:44 51.43247 21.64168 23243 ft 424 kts 151°
2026-05-08 08:45 51.40605 21.66363 23613 ft 425 kts 158°
2026-05-08 08:45 51.37833 21.67976 23959 ft 426 kts 168°
2026-05-08 08:45 51.34940 21.68795 24315 ft 425 kts 178°
2026-05-08 08:45 51.32017 21.69022 24674 ft 426 kts 181°
2026-05-08 08:46 51.29033 21.69163 24982 ft 430 kts 180°
2026-05-08 08:46 51.26054 21.69357 25308 ft 432 kts 180°
2026-05-08 08:46 51.23041 21.69557 25625 ft 435 kts 180°
2026-05-08 08:46 51.20041 21.69737 25927 ft 437 kts 180°
2026-05-08 08:47 51.17005 21.69910 26234 ft 440 kts 180°
2026-05-08 08:47 51.13949 21.70081 26522 ft 442 kts 180°
2026-05-08 08:47 51.10879 21.70252 26809 ft 444 kts 180°
2026-05-08 08:47 51.07816 21.70421 27091 ft 446 kts 180°
2026-05-08 08:48 51.04707 21.70589 27356 ft 449 kts 180°
2026-05-08 08:48 51.01582 21.70757 27589 ft 452 kts 180°
2026-05-08 08:48 50.98436 21.70925 27783 ft 456 kts 180°
2026-05-08 08:48 50.95291 21.71093 27987 ft 459 kts 180°
2026-05-08 08:49 50.92099 21.71262 28187 ft 462 kts 180°
2026-05-08 08:49 50.88846 21.71434 28372 ft 466 kts 180°
2026-05-08 08:49 50.85614 21.71598 28597 ft 468 kts 180°
2026-05-08 08:49 50.82346 21.71741 28848 ft 470 kts 180°
2026-05-08 08:50 50.79115 21.71872 29050 ft 472 kts 180°
2026-05-08 08:50 50.75808 21.72018 29240 ft 475 kts 180°
2026-05-08 08:50 50.72495 21.72177 29475 ft 476 kts 180°
2026-05-08 08:50 50.69237 21.72346 29682 ft 478 kts 180°
2026-05-08 08:51 50.65878 21.72521 29863 ft 480 kts 180°
2026-05-08 08:51 50.62593 21.72696 30105 ft 480 kts 180°
2026-05-08 08:51 50.59240 21.72870 30331 ft 481 kts 180°
2026-05-08 08:51 50.55918 21.73031 30534 ft 483 kts 180°
2026-05-08 08:52 50.52566 21.73189 30692 ft 485 kts 180°
2026-05-08 08:52 50.49209 21.73344 30865 ft 487 kts 180°
2026-05-08 08:52 50.45808 21.73520 30986 ft 489 kts 180°
2026-05-08 08:52 50.42416 21.73703 31184 ft 490 kts 180°
2026-05-08 08:53 50.39040 21.73874 31310 ft 492 kts 180°
2026-05-08 08:53 50.35626 21.74044 31535 ft 492 kts 180°
2026-05-08 08:53 50.32209 21.74219 31809 ft 490 kts 180°
2026-05-08 08:53 50.28818 21.74396 32065 ft 490 kts 180°
2026-05-08 08:54 50.25410 21.74571 32327 ft 488 kts 180°
2026-05-08 08:54 50.22083 21.74775 32615 ft 486 kts 179°
2026-05-08 08:54 50.18710 21.75018 32876 ft 485 kts 179°
2026-05-08 08:54 50.15333 21.75248 32985 ft 488 kts 179°
2026-05-08 08:55 50.11918 21.75466 33143 ft 489 kts 179°
2026-05-08 08:55 50.08560 21.75675 33393 ft 487 kts 179°
2026-05-08 08:55 50.05212 21.75860 33626 ft 486 kts 180°
2026-05-08 08:55 50.01810 21.75980 33837 ft 486 kts 180°
2026-05-08 08:56 49.98473 21.76077 34101 ft 484 kts 180°
2026-05-08 08:56 49.95115 21.76222 34327 ft 483 kts 179°
2026-05-08 08:56 49.91785 21.76417 34447 ft 484 kts 179°
2026-05-08 08:56 49.88386 21.76631 34563 ft 486 kts 179°
2026-05-08 08:57 49.85048 21.76848 34666 ft 487 kts 179°
2026-05-08 08:57 49.81658 21.77060 34825 ft 487 kts 179°
2026-05-08 08:57 49.78313 21.77272 35039 ft 485 kts 179°
2026-05-08 08:57 49.74924 21.77470 35069 ft 487 kts 179°
2026-05-08 08:58 49.68193 21.77773 35073 ft 485 kts 180°
2026-05-08 08:58 49.61520 21.77986 35075 ft 484 kts 180°
2026-05-08 08:59 49.54784 21.78210 35074 ft 485 kts 180°
2026-05-08 08:59 49.48078 21.78474 35074 ft 484 kts 180°
2026-05-08 09:00 49.41367 21.78793 35074 ft 485 kts 180°
2026-05-08 09:00 49.34682 21.79119 35071 ft 484 kts 179°
2026-05-08 09:01 49.27982 21.79520 35069 ft 484 kts 179°
2026-05-08 09:01 49.21271 21.79969 35061 ft 485 kts 179°
2026-05-08 09:02 49.14583 21.80390 35052 ft 483 kts 179°
2026-05-08 09:02 49.07858 21.80732 35048 ft 486 kts 180°
2026-05-08 09:03 49.01109 21.80941 35047 ft 487 kts 180°
2026-05-08 09:03 48.94378 21.81182 35046 ft 488 kts 180°
2026-05-08 09:04 48.87591 21.81656 35045 ft 490 kts 175°
2026-05-08 09:04 48.80883 21.83184 35045 ft 489 kts 172°
2026-05-08 09:05 48.74189 21.84799 35046 ft 489 kts 172°
2026-05-08 09:05 48.67482 21.86287 35048 ft 490 kts 173°
2026-05-08 09:06 48.60766 21.87717 35054 ft 488 kts 173°
2026-05-08 09:06 48.54050 21.89145 35064 ft 488 kts 173°
2026-05-08 09:07 48.47366 21.90576 35074 ft 490 kts 173°
2026-05-08 09:07 48.40628 21.91964 35074 ft 490 kts 174°
2026-05-08 09:08 48.33939 21.93358 35074 ft 488 kts 173°
2026-05-08 09:08 48.27206 21.94805 35073 ft 490 kts 173°
2026-05-08 09:09 48.20502 21.96304 35074 ft 489 kts 173°
2026-05-08 09:09 48.13808 21.97807 35074 ft 489 kts 173°
2026-05-08 09:10 48.07098 21.99349 35074 ft 489 kts 172°
2026-05-08 09:10 48.00389 22.00898 35075 ft 489 kts 172°
2026-05-08 09:11 47.93682 22.02425 35074 ft 488 kts 172°
2026-05-08 09:11 47.86973 22.03993 35075 ft 491 kts 172°
2026-05-08 09:12 47.80288 22.05514 35073 ft 489 kts 172°
2026-05-08 09:12 47.73582 22.07025 35075 ft 488 kts 172°
2026-05-08 09:13 47.66873 22.08554 35074 ft 488 kts 172°
2026-05-08 09:13 47.60185 22.10116 35074 ft 489 kts 172°
2026-05-08 09:14 47.53510 22.11876 35073 ft 489 kts 168°
2026-05-08 09:14 47.46902 22.14183 35073 ft 491 kts 168°
2026-05-08 09:15 47.40264 22.16393 35074 ft 489 kts 168°
2026-05-08 09:15 47.33623 22.18498 35074 ft 491 kts 169°
2026-05-08 09:16 47.27014 22.20618 35074 ft 489 kts 168°
2026-05-08 09:16 47.20370 22.22831 35074 ft 491 kts 168°
2026-05-08 09:17 47.13726 22.25006 35074 ft 491 kts 168°
2026-05-08 09:17 47.07098 22.27083 35073 ft 489 kts 168°
2026-05-08 09:18 47.00488 22.29164 35075 ft 489 kts 168°
2026-05-08 09:18 46.93870 22.31259 35073 ft 487 kts 169°
2026-05-08 09:19 46.87274 22.33388 35075 ft 482 kts 169°
2026-05-08 09:19 46.80757 22.35537 35076 ft 483 kts 168°
2026-05-08 09:20 46.74205 22.37665 35072 ft 483 kts 169°
2026-05-08 09:20 46.67698 22.39731 35074 ft 482 kts 169°
2026-05-08 09:21 46.61158 22.41810 35074 ft 483 kts 169°
2026-05-08 09:23 46.38224 22.48987 35074 ft 483 kts 169°
2026-05-08 09:23 46.31683 22.51029 35074 ft 484 kts 169°
2026-05-08 09:24 46.25146 22.53066 35074 ft 484 kts 169°
2026-05-08 09:24 46.18608 22.55107 35074 ft 482 kts 169°
2026-05-08 09:25 46.12067 22.57143 35074 ft 483 kts 169°
2026-05-08 09:25 46.05527 22.59173 35073 ft 484 kts 169°
2026-05-08 09:26 45.98959 22.61185 35074 ft 483 kts 169°
2026-05-08 09:26 45.92387 22.63221 35073 ft 483 kts 169°
2026-05-08 09:27 45.85964 22.65193 35075 ft 483 kts 169°
2026-05-08 09:27 45.79399 22.67225 35074 ft 484 kts 169°
2026-05-08 09:28 45.72817 22.69225 35073 ft 482 kts 169°
2026-05-08 09:28 45.66288 22.71227 35075 ft 483 kts 170°
2026-05-08 09:29 45.59755 22.73199 35073 ft 483 kts 170°
2026-05-08 09:29 45.53168 22.75190 35072 ft 483 kts 170°
2026-05-08 09:30 45.46625 22.77158 35073 ft 482 kts 170°
2026-05-08 09:30 45.40114 22.79128 35075 ft 484 kts 170°
2026-05-08 09:31 45.33544 22.81104 35073 ft 484 kts 170°
2026-05-08 09:31 45.26999 22.83065 35074 ft 481 kts 170°
2026-05-08 09:32 45.20473 22.85041 35074 ft 479 kts 171°
2026-05-08 09:32 45.13992 22.87006 35076 ft 479 kts 171°
2026-05-08 09:33 45.07546 22.88878 35073 ft 475 kts 172°
2026-05-08 09:33 45.01120 22.90680 35073 ft 467 kts 172°
2026-05-08 09:34 44.94809 22.92483 35074 ft 462 kts 171°
2026-05-08 09:34 44.88553 22.94385 35076 ft 464 kts 170°
2026-05-08 09:35 44.82238 22.96365 35073 ft 463 kts 170°
2026-05-08 09:35 44.76005 22.98243 35073 ft 458 kts 171°
2026-05-08 09:36 44.69812 22.99994 35075 ft 457 kts 172°
2026-05-08 09:36 44.63572 23.01746 35073 ft 457 kts 171°
2026-05-08 09:37 44.57404 23.03618 35075 ft 455 kts 170°
2026-05-08 09:37 44.51239 23.05493 35073 ft 456 kts 171°
2026-05-08 09:38 44.45085 23.07318 35074 ft 453 kts 171°
2026-05-08 09:38 44.38941 23.09108 35075 ft 454 kts 171°
2026-05-08 09:39 44.32760 23.10932 35072 ft 456 kts 171°
2026-05-08 09:39 44.26616 23.12712 35073 ft 455 kts 171°
2026-05-08 09:40 44.20411 23.14509 35074 ft 455 kts 171°
2026-05-08 09:40 44.14248 23.16257 35073 ft 454 kts 171°
2026-05-08 09:41 44.08110 23.18022 35074 ft 454 kts 171°
2026-05-08 09:41 44.01915 23.19785 35075 ft 456 kts 171°
2026-05-08 09:42 43.95737 23.21536 35074 ft 454 kts 171°
2026-05-08 09:42 43.89545 23.23312 35073 ft 455 kts 171°
2026-05-08 09:43 43.83383 23.25085 35075 ft 454 kts 171°
2026-05-08 09:43 43.77308 23.27315 35073 ft 458 kts 166°
2026-05-08 09:44 43.71227 23.29804 35072 ft 456 kts 166°
2026-05-08 09:44 43.65112 23.32172 35077 ft 456 kts 167°
2026-05-08 09:45 43.59030 23.34511 35087 ft 456 kts 167°
2026-05-08 09:45 43.52961 23.36883 35099 ft 457 kts 166°
2026-05-08 09:46 43.46851 23.39265 35100 ft 457 kts 166°
2026-05-08 09:46 43.40748 23.41640 35101 ft 455 kts 166°
2026-05-08 09:47 43.34645 23.44022 35103 ft 457 kts 166°
2026-05-08 09:47 43.28583 23.46362 35101 ft 456 kts 167°
2026-05-08 09:48 43.22515 23.48717 35099 ft 455 kts 166°
2026-05-08 09:48 43.16420 23.51084 35102 ft 456 kts 166°
2026-05-08 09:49 43.10334 23.53445 35101 ft 458 kts 167°
2026-05-08 09:49 43.04251 23.55795 35101 ft 455 kts 167°
2026-05-08 09:50 42.98172 23.58131 35102 ft 457 kts 167°
2026-05-08 09:50 42.92034 23.60473 35101 ft 463 kts 167°
2026-05-08 09:51 42.85790 23.62889 35101 ft 468 kts 167°
2026-05-08 09:51 42.79567 23.65282 35100 ft 467 kts 168°
2026-05-08 09:52 42.73334 23.67667 35102 ft 465 kts 168°
2026-05-08 09:52 42.67106 23.70022 35101 ft 466 kts 168°
2026-05-08 09:53 42.60938 23.72373 35101 ft 466 kts 168°
2026-05-08 09:53 42.54694 23.74755 35098 ft 467 kts 168°
2026-05-08 09:54 42.48493 23.77098 35101 ft 465 kts 168°
2026-05-08 09:54 42.42247 23.79422 35101 ft 467 kts 168°
2026-05-08 09:55 42.36030 23.81824 35101 ft 467 kts 167°
2026-05-08 09:55 42.29849 23.84245 35101 ft 465 kts 168°
2026-05-08 09:56 42.23613 23.86621 35101 ft 466 kts 168°
2026-05-08 09:56 42.17396 23.88969 35101 ft 467 kts 168°
2026-05-08 09:57 42.08074 23.92488 35102 ft 465 kts 168°
2026-05-08 09:57 42.01861 23.94813 35102 ft 467 kts 168°
2026-05-08 09:58 41.95633 23.97126 35100 ft 466 kts 168°
2026-05-08 09:58 41.89384 23.99438 35099 ft 465 kts 168°
2026-05-08 09:59 41.83054 24.01782 35100 ft 466 kts 168°
2026-05-08 09:59 41.76806 24.04092 35101 ft 466 kts 168°
2026-05-08 10:00 41.70603 24.06385 35106 ft 464 kts 168°
2026-05-08 10:00 41.64387 24.08668 35111 ft 465 kts 168°
2026-05-08 10:01 41.58174 24.10987 35118 ft 467 kts 167°
2026-05-08 10:01 41.52238 24.14373 35124 ft 474 kts 150°
2026-05-08 10:02 41.46787 24.19327 35121 ft 475 kts 149°
2026-05-08 10:02 41.41283 24.24137 35128 ft 474 kts 150°
2026-05-08 10:03 41.35763 24.28972 35128 ft 476 kts 149°
2026-05-08 10:03 41.30331 24.33857 35128 ft 474 kts 149°
2026-05-08 10:04 41.24867 24.38759 35127 ft 475 kts 149°
2026-05-08 10:04 41.19361 24.43560 35124 ft 473 kts 153°
2026-05-08 10:05 41.13494 24.47344 35128 ft 470 kts 159°
2026-05-08 10:05 41.07606 24.51063 35127 ft 470 kts 157°
2026-05-08 10:06 41.01774 24.54827 35127 ft 465 kts 158°
2026-05-08 10:06 40.95995 24.58486 35128 ft 460 kts 158°
2026-05-08 10:07 40.90274 24.62113 35128 ft 459 kts 158°
2026-05-08 10:07 40.84622 24.65705 35129 ft 460 kts 159°
2026-05-08 10:08 40.78876 24.69348 35128 ft 460 kts 159°
2026-05-08 10:08 40.73132 24.72991 35128 ft 460 kts 159°
2026-05-08 10:09 40.67367 24.76654 35128 ft 460 kts 159°
2026-05-08 10:09 40.61631 24.80273 35128 ft 460 kts 159°
2026-05-08 10:10 40.55866 24.83906 35128 ft 460 kts 159°
2026-05-08 10:10 40.50149 24.87501 35128 ft 460 kts 159°
2026-05-08 10:11 40.44371 24.91128 35128 ft 459 kts 159°
2026-05-08 10:11 40.38638 24.94721 35128 ft 460 kts 159°
2026-05-08 10:12 40.32896 24.98311 35128 ft 461 kts 159°
2026-05-08 10:12 40.27125 25.01912 35128 ft 463 kts 158°
2026-05-08 10:13 40.21286 25.05550 35128 ft 465 kts 158°
2026-05-08 10:13 40.15468 25.09167 35128 ft 467 kts 158°
2026-05-08 10:14 40.09596 25.12812 35128 ft 469 kts 158°
2026-05-08 10:14 40.03743 25.16437 35128 ft 470 kts 158°
2026-05-08 10:15 39.97833 25.20091 35128 ft 471 kts 157°
2026-05-08 10:15 39.91913 25.23657 35126 ft 470 kts 161°
2026-05-08 10:16 39.85824 25.26245 35128 ft 467 kts 166°
2026-05-08 10:16 39.79674 25.28737 35128 ft 468 kts 165°
2026-05-08 10:17 39.73478 25.31289 35128 ft 468 kts 165°
2026-05-08 10:17 39.67300 25.33811 35128 ft 468 kts 165°
2026-05-08 10:18 39.61119 25.36332 35128 ft 468 kts 165°
2026-05-08 10:18 39.54931 25.38850 35128 ft 468 kts 165°
2026-05-08 10:19 39.48762 25.41356 35128 ft 468 kts 165°
2026-05-08 10:20 39.39448 25.45129 35128 ft 468 kts 165°
2026-05-08 10:20 39.33299 25.47614 35128 ft 468 kts 165°
2026-05-08 10:21 39.27096 25.50117 35128 ft 468 kts 165°
2026-05-08 10:21 39.20904 25.52610 35128 ft 468 kts 165°
2026-05-08 10:22 39.14712 25.55099 35131 ft 468 kts 165°
2026-05-08 10:22 39.08534 25.57578 35138 ft 468 kts 165°
2026-05-08 10:23 39.02348 25.60054 35146 ft 468 kts 165°
2026-05-08 10:23 38.96175 25.62522 35076 ft 468 kts 165°
2026-05-08 10:23 38.93047 25.63770 34820 ft 469 kts 165°
2026-05-08 10:24 38.89946 25.65007 34568 ft 467 kts 166°
2026-05-08 10:24 38.86869 25.66235 34317 ft 464 kts 166°
2026-05-08 10:24 38.83734 25.67482 34061 ft 463 kts 166°
2026-05-08 10:24 38.80619 25.68720 33808 ft 463 kts 166°
2026-05-08 10:25 38.77549 25.69939 33558 ft 463 kts 166°
2026-05-08 10:25 38.74475 25.71160 33308 ft 463 kts 166°
2026-05-08 10:25 38.71427 25.72368 33060 ft 464 kts 166°
2026-05-08 10:25 38.68370 25.73579 32489 ft 465 kts 166°
2026-05-08 10:26 38.65278 25.74803 31561 ft 466 kts 166°
2026-05-08 10:26 38.62212 25.76015 30617 ft 468 kts 166°
2026-05-08 10:26 38.59108 25.77241 29622 ft 469 kts 166°
2026-05-08 10:26 38.56023 25.78459 28594 ft 472 kts 166°
2026-05-08 10:27 38.52869 25.79702 27499 ft 474 kts 166°
2026-05-08 10:27 38.49785 25.80918 26719 ft 468 kts 166°
2026-05-08 10:27 38.46675 25.82145 25957 ft 463 kts 166°
2026-05-08 10:27 38.43668 25.83329 25208 ft 458 kts 166°
2026-05-08 10:28 38.40626 25.84525 24444 ft 452 kts 165°
2026-05-08 10:28 38.37648 25.85695 23690 ft 447 kts 165°
2026-05-08 10:28 38.34706 25.86849 22937 ft 443 kts 165°
2026-05-08 10:28 38.31806 25.87985 22193 ft 438 kts 165°
2026-05-08 10:29 38.28925 25.89177 21448 ft 434 kts 162°
2026-05-08 10:29 38.26165 25.90679 20710 ft 432 kts 155°
2026-05-08 10:29 38.23600 25.92607 19977 ft 430 kts 146°
2026-05-08 10:29 38.21305 25.94967 19252 ft 427 kts 141°
2026-05-08 10:30 38.19113 25.97428 18519 ft 423 kts 141°
2026-05-08 10:30 38.16897 25.99858 17786 ft 418 kts 141°
2026-05-08 10:30 38.14707 26.02243 17059 ft 414 kts 141°
2026-05-08 10:30 38.12534 26.04629 16329 ft 410 kts 141°
2026-05-08 10:31 38.10410 26.06971 15624 ft 406 kts 141°
2026-05-08 10:31 38.08292 26.09304 14923 ft 402 kts 141°
2026-05-08 10:31 38.06211 26.11598 14226 ft 398 kts 141°
2026-05-08 10:31 38.04149 26.13871 13529 ft 394 kts 141°
2026-05-08 10:32 38.02092 26.16137 12831 ft 390 kts 140°
2026-05-08 10:32 38.00076 26.18356 12152 ft 386 kts 140°
2026-05-08 10:32 37.98072 26.20562 11836 ft 376 kts 140°
2026-05-08 10:32 37.96078 26.22754 11582 ft 380 kts 140°
2026-05-08 10:33 37.94085 26.24942 11328 ft 381 kts 140°
2026-05-08 10:33 37.92094 26.27130 11076 ft 379 kts 140°
2026-05-08 10:33 37.90118 26.29298 10825 ft 376 kts 141°
2026-05-08 10:33 37.88142 26.31465 10573 ft 374 kts 141°
2026-05-08 10:34 37.86178 26.33617 10321 ft 372 kts 141°
2026-05-08 10:34 37.84239 26.35736 10071 ft 369 kts 141°
2026-05-08 10:34 37.82332 26.37817 9809 ft 355 kts 141°
2026-05-08 10:34 37.80505 26.39809 9560 ft 341 kts 141°
2026-05-08 10:35 37.78751 26.41721 9311 ft 328 kts 141°
2026-05-08 10:35 37.77050 26.43573 9060 ft 317 kts 141°
2026-05-08 10:35 37.75427 26.45339 8812 ft 307 kts 141°
2026-05-08 10:35 37.73833 26.47073 8561 ft 297 kts 141°
2026-05-08 10:36 37.72281 26.48758 8309 ft 288 kts 141°
2026-05-08 10:36 37.70790 26.50378 8060 ft 281 kts 141°
2026-05-08 10:36 37.69352 26.52011 7810 ft 276 kts 139°
2026-05-08 10:36 37.67975 26.53656 7564 ft 274 kts 138°
2026-05-08 10:37 37.66580 26.55311 7314 ft 273 kts 139°
2026-05-08 10:37 37.65195 26.56948 7063 ft 272 kts 139°
2026-05-08 10:37 37.63828 26.58558 6816 ft 271 kts 139°
2026-05-08 10:37 37.62461 26.60162 6567 ft 269 kts 139°
2026-05-08 10:38 37.61089 26.61766 6316 ft 268 kts 138°
2026-05-08 10:38 37.59732 26.63346 6067 ft 266 kts 138°
2026-05-08 10:38 37.58364 26.64927 5815 ft 265 kts 139°
2026-05-08 10:38 37.56925 26.66387 5563 ft 263 kts 144°
2026-05-08 10:39 37.55460 26.67776 5312 ft 262 kts 144°
2026-05-08 10:39 37.54013 26.69151 5062 ft 261 kts 144°
2026-05-08 10:39 37.52573 26.70524 4811 ft 260 kts 141°
2026-05-08 10:39 37.51408 26.72255 4514 ft 260 kts 118°
2026-05-08 10:40 37.50944 26.74469 4030 ft 265 kts 96°
2026-05-08 10:40 37.50848 26.76738 3780 ft 258 kts 95°
2026-05-08 10:40 37.50747 26.78950 3641 ft 245 kts 95°
2026-05-08 10:40 37.50652 26.81019 3486 ft 229 kts 95°
2026-05-08 10:41 37.50565 26.82963 3363 ft 215 kts 94°
2026-05-08 10:41 37.50781 26.84820 3258 ft 219 kts 69°
2026-05-08 10:41 37.51535 26.86444 3164 ft 212 kts 58°
2026-05-08 10:41 37.52337 26.87967 2961 ft 199 kts 59°
2026-05-08 10:42 37.53076 26.89374 2706 ft 188 kts 59°
2026-05-08 10:42 37.53773 26.90690 2500 ft 175 kts 56°
2026-05-08 10:42 37.54710 26.91636 2318 ft 178 kts 20°
2026-05-08 10:42 37.55957 26.91665 2164 ft 183 kts 347°
2026-05-08 10:43 37.57175 26.91181 2001 ft 184 kts 344°
2026-05-08 10:43 37.58340 26.90705 1783 ft 167 kts 344°
2026-05-08 10:43 37.59399 26.90442 1692 ft 150 kts 359°
2026-05-08 10:43 37.60436 26.90366 1973 ft 154 kts
2026-05-08 10:44 37.61548 26.90368 1827 ft 156 kts
2026-05-08 10:44 37.62611 26.90324 1756 ft 156 kts 352°
2026-05-08 10:44 37.63590 26.89724 1566 ft 158 kts 328°
2026-05-08 10:44 37.64525 26.88995 1404 ft 157 kts 331°
2026-05-08 10:45 37.65463 26.88307 1182 ft 156 kts 332°
2026-05-08 10:45 37.66420 26.87669 972 ft 154 kts 337°
2026-05-08 10:45 37.67433 26.87313 778 ft 154 kts 360°
2026-05-08 10:45 37.68451 26.87627 543 ft 149 kts 37°
2026-05-08 10:46 37.69005 26.88646 353 ft 144 kts 80°
2026-05-08 10:46 37.68998 26.89913 133 ft 141 kts 98°
2026-05-08 10:46 37.68922 26.91090 27 ft 116 kts 95°
2026-05-08 10:46 37.68877 26.91842 27 ft 61 kts 96°
2026-05-08 10:47 37.68854 26.92202 27 ft 24 kts 96°
2026-05-08 10:47 37.68843 26.92298 27 ft 1 kts 114°
2026-05-08 10:47 37.68842 26.92300 27 ft 0 kts 113°
2026-05-08 10:47 37.68840 26.92303 27 ft 1 kts 114°
2026-05-08 10:48 37.68837 26.92316 27 ft 0 kts 90°
2026-05-08 10:48 37.68840 26.92319 27 ft 0 kts 27°
2026-05-08 10:48 37.68843 26.92318 27 ft 0 kts 333°
2026-05-08 10:48 37.68845 26.92310 27 ft 4 kts 279°
2026-05-08 10:49 37.68854 26.92224 27 ft 15 kts 274°
2026-05-08 10:49 37.68864 26.92044 27 ft 20 kts 275°
2026-05-08 10:49 37.68872 26.91906 27 ft 11 kts 275°
2026-05-08 10:49 37.68878 26.91824 27 ft 7 kts 275°
2026-05-08 10:50 37.68882 26.91769 27 ft 5 kts 279°
2026-05-08 10:50 37.68898 26.91723 27 ft 6 kts 304°
2026-05-08 10:50 37.68933 26.91693 27 ft 6 kts 335°
2026-05-08 10:50 37.68971 26.91663 27 ft 6 kts 307°
2026-05-08 10:51 37.68988 26.91585 27 ft 11 kts 282°
2026-05-08 10:51 37.68999 26.91518 27 ft 4 kts 289°
2026-05-08 10:51 37.69027 26.91507 27 ft 4 kts
2026-05-08 10:51 37.69034 26.91510 27 ft 2 kts 22°
2026-05-08 10:52 37.69038 26.91512 27 ft 0 kts 12°